English version Home page |
Updated on March 17, 2010 |
|
軌道要素The following orbital elements are taken from MPC 54169: Epoch 2008 June 23.0 TT = JDT 2454640.5 T 2008 June 22.5561 TT MPC q 0.970035 (2000.0) P Q n 0.1517418 Peri. 347.4771 +0.9993760 -0.0210673 a 3.481228 Node 13.8245 +0.0324391 +0.8650272 e 0.721353 Incl. 6.8143 -0.0139772 +0.5012825 P 6.50 From 60 observations 1967-2002, mean residual 1".2. Nongravitational parameters A1 = +0.10, A2 = +0.0185.
|
星図
|
光度変化m1 = 9.5 + 5 logΔ + 30.0 log r(t - 20) [ , 20] ( 〜2008年 7月12日) m1 = 9.4 + 5 logΔ + 25.0 log r(t - 20) [ 20,145] (2008年 7月12日〜2008年11月14日) m1 = 13.2 + 5 logΔ + 10.0 log r [145, ] (2008年11月14日〜 )
|
軌道要素はMPCのEphemerides and Orbital Elementsに掲載されたものです。
|